When you browse on this site, cookies collect data to enhance your experience and personalize the content and advertising you see.
Visit our Privacy Policy to learn more. By continuing to use the site, you agree to this use of cookies and data.
  • în România
  • Lista ţărilor
  • Pe 7 zile
  • Temperatura apei
  • Meteo pe hartă
  • Widget-uri
  • user-avatar
    Intrare

    Meteo pe oră la Wien

    Astăzi, 5 Iunie, Vineri

    Timp Temperatura Precipitaţii Vânt Presiune Umiditate
    00:00 +17°C° 0.1 mm 4 m/s 728 mmHg 77%
    01:00 +16°C° 0.1 mm 5 m/s 728 mmHg 81%
    02:00 +15°C° 0.8 mm 4 m/s 728 mmHg 85%
    03:00 +14°C° 0.8 mm 4 m/s 728 mmHg 88%
    04:00 +14°C° 0.8 mm 4 m/s 728 mmHg 91%
    05:00 +13°C° 1.6 mm 4 m/s 729 mmHg 90%
    06:00 +13°C° 1.6 mm 4 m/s 729 mmHg 89%
    07:00 +13°C° 1.6 mm 5 m/s 729 mmHg 88%
    08:00 +14°C° 0.5 mm 4 m/s 730 mmHg 85%
    09:00 +14°C° 0.5 mm 3 m/s 730 mmHg 81%
    10:00 +16°C° 0.5 mm 3 m/s 730 mmHg 78%
    11:00 +16°C° 0.1 mm 3 m/s 731 mmHg 79%
    12:00 +16°C° 0.1 mm 3 m/s 731 mmHg 79%
    13:00 +17°C° 0.1 mm 3 m/s 731 mmHg 79%
    14:00 +17°C° 0.1 mm 3 m/s 731 mmHg 77%
    15:00 +17°C° 0.1 mm 2 m/s 731 mmHg 74%
    16:00 +19°C° 0.1 mm 1 m/s 732 mmHg 72%
    17:00 +17°C° 0 mm 2 m/s 732 mmHg 74%
    18:00 +17°C° 0 mm 2 m/s 732 mmHg 76%
    19:00 +17°C° 0 mm 2 m/s 732 mmHg 77%
    20:00 +16°C° 0 mm 2 m/s 733 mmHg 79%
    21:00 +15°C° 0 mm 2 m/s 734 mmHg 81%
    22:00 +14°C° 0 mm 1 m/s 735 mmHg 83%
    23:00 +14°C° 0 mm 1 m/s 735 mmHg 82%

    Mâine, 6 Iunie, Sâmbătă

    Timp Temperatura Precipitaţii Vânt Presiune Umiditate
    00:00 +13°C° 0 mm 1 m/s 735 mmHg 81%
    01:00 +13°C° 0 mm 1 m/s 736 mmHg 81%
    02:00 +13°C° 0 mm 1 m/s 736 mmHg 81%
    03:00 +13°C° 0 mm 1 m/s 736 mmHg 81%
    04:00 +13°C° 0 mm 1 m/s 737 mmHg 81%
    05:00 +14°C° 0 mm 1 m/s 737 mmHg 78%
    06:00 +15°C° 0 mm 1 m/s 737 mmHg 75%
    07:00 +16°C° 0 mm 2 m/s 737 mmHg 72%
    08:00 +18°C° 0 mm 3 m/s 738 mmHg 67%
    09:00 +19°C° 0 mm 4 m/s 738 mmHg 62%
    10:00 +21°C° 0 mm 5 m/s 738 mmHg 57%
    11:00 +22°C° 0 mm 5 m/s 737 mmHg 57%
    12:00 +22°C° 0 mm 5 m/s 737 mmHg 56%
    13:00 +23°C° 0 mm 5 m/s 737 mmHg 55%
    14:00 +23°C° 0 mm 5 m/s 736 mmHg 56%
    15:00 +25°C° 0 mm 5 m/s 736 mmHg 57%
    16:00 +25°C° 0 mm 5 m/s 736 mmHg 58%
    17:00 +23°C° 0.1 mm 4 m/s 736 mmHg 63%
    18:00 +22°C° 0.1 mm 4 m/s 736 mmHg 68%
    19:00 +21°C° 0.1 mm 3 m/s 735 mmHg 74%
    20:00 +20°C° 0.4 mm 3 m/s 736 mmHg 77%
    21:00 +19°C° 0.4 mm 3 m/s 736 mmHg 80%
    22:00 +18°C° 0.4 mm 3 m/s 736 mmHg 84%
    23:00 +17°C° 0.8 mm 2 m/s 736 mmHg 86%

    Poimâine, 7 Iunie, Duminică

    Timp Temperatura Precipitaţii Vânt Presiune Umiditate
    00:00 +17°C° 0.8 mm 2 m/s 736 mmHg 88%
    01:00 +16°C° 0.8 mm 2 m/s 736 mmHg 90%
    02:00 +16°C° 0.1 mm 2 m/s 736 mmHg 90%
    03:00 +16°C° 0.1 mm 2 m/s 736 mmHg 90%
    04:00 +15°C° 0.1 mm 2 m/s 736 mmHg 90%
    05:00 +16°C° 0 mm 2 m/s 736 mmHg 87%
    06:00 +17°C° 0 mm 2 m/s 736 mmHg 85%
    07:00 +18°C° 0 mm 2 m/s 737 mmHg 82%
    08:00 +19°C° 0 mm 2 m/s 737 mmHg 77%
    09:00 +20°C° 0 mm 2 m/s 737 mmHg 71%
    10:00 +23°C° 0 mm 2 m/s 738 mmHg 65%
    11:00 +23°C° 0.1 mm 2 m/s 738 mmHg 65%
    12:00 +22°C° 0.1 mm 3 m/s 738 mmHg 64%
    13:00 +24°C° 0.1 mm 3 m/s 738 mmHg 64%
    14:00 +22°C° 0.3 mm 3 m/s 738 mmHg 67%
    15:00 +21°C° 0.3 mm 4 m/s 738 mmHg 70%
    16:00 +21°C° 0.3 mm 4 m/s 737 mmHg 73%
    17:00 +20°C° 0.1 mm 4 m/s 738 mmHg 74%
    18:00 +19°C° 0.1 mm 5 m/s 738 mmHg 74%
    19:00 +16°C° 0.1 mm 5 m/s 738 mmHg 75%
    20:00 +17°C° 0 mm 4 m/s 738 mmHg 76%
    21:00 +15°C° 0 mm 4 m/s 739 mmHg 76%
    22:00 +15°C° 0 mm 4 m/s 739 mmHg 77%
    23:00 +14°C° 0 mm 5 m/s 739 mmHg 77%

    8 Iunie, Luni

    Timp Temperatura Precipitaţii Vânt Presiune Umiditate
    00:00 +14°C° 0 mm 5 m/s 739 mmHg 76%
    01:00 +14°C° 0 mm 5 m/s 738 mmHg 76%
    02:00 +13°C° 0.2 mm 5 m/s 738 mmHg 78%
    03:00 +13°C° 0.2 mm 5 m/s 738 mmHg 79%
    04:00 +12°C° 0.2 mm 4 m/s 738 mmHg 81%
    05:00 +13°C° 0.1 mm 4 m/s 738 mmHg 82%
    06:00 +13°C° 0.1 mm 4 m/s 738 mmHg 83%
    07:00 +13°C° 0.1 mm 3 m/s 738 mmHg 84%
    08:00 +14°C° 0 mm 3 m/s 739 mmHg 80%
    09:00 +16°C° 0 mm 3 m/s 739 mmHg 76%
    10:00 +17°C° 0 mm 3 m/s 739 mmHg 73%
    11:00 +18°C° 0 mm 3 m/s 739 mmHg 72%
    12:00 +18°C° 0 mm 3 m/s 739 mmHg 72%
    13:00 +18°C° 0 mm 3 m/s 739 mmHg 72%
    14:00 +18°C° 0 mm 3 m/s 739 mmHg 71%
    15:00 +19°C° 0 mm 3 m/s 739 mmHg 70%
    16:00 +19°C° 0 mm 3 m/s 739 mmHg 68%
    17:00 +18°C° 0 mm 3 m/s 739 mmHg 72%
    18:00 +18°C° 0 mm 3 m/s 739 mmHg 75%
    19:00 +17°C° 0 mm 2 m/s 739 mmHg 78%
    20:00 +16°C° 0 mm 2 m/s 739 mmHg 81%
    21:00 +15°C° 0 mm 2 m/s 739 mmHg 83%
    22:00 +14°C° 0 mm 2 m/s 739 mmHg 86%
    23:00 +14°C° 0 mm 2 m/s 739 mmHg 85%

    9 Iunie, Marţi

    Timp Temperatura Precipitaţii Vânt Presiune Umiditate
    00:00 +15°C° 0 mm 2 m/s 739 mmHg 84%
    01:00 +15°C° 0 mm 2 m/s 739 mmHg 83%
    02:00 +14°C° 0.1 mm 2 m/s 739 mmHg 84%
    03:00 +14°C° 0.1 mm 2 m/s 739 mmHg 85%
    04:00 +14°C° 0.1 mm 2 m/s 739 mmHg 86%
    05:00 +14°C° 0.3 mm 2 m/s 739 mmHg 87%
    06:00 +14°C° 0.3 mm 2 m/s 740 mmHg 87%
    07:00 +13°C° 0.3 mm 3 m/s 740 mmHg 88%
    08:00 +13°C° 0.6 mm 3 m/s 740 mmHg 89%
    09:00 +13°C° 0.6 mm 3 m/s 740 mmHg 90%
    10:00 +13°C° 0.6 mm 3 m/s 740 mmHg 91%
    11:00 +13°C° 0.4 mm 3 m/s 740 mmHg 91%
    12:00 +13°C° 0.4 mm 3 m/s 741 mmHg 91%
    13:00 +14°C° 0.4 mm 4 m/s 741 mmHg 91%
    14:00 +13°C° 0.5 mm 4 m/s 740 mmHg 91%
    15:00 +13°C° 0.5 mm 4 m/s 740 mmHg 91%
    16:00 +13°C° 0.5 mm 4 m/s 740 mmHg 91%
    17:00 +13°C° 0.7 mm 4 m/s 740 mmHg 91%
    18:00 +13°C° 0.7 mm 4 m/s 741 mmHg 91%
    19:00 +13°C° 0.7 mm 4 m/s 741 mmHg 91%
    20:00 +13°C° 0.1 mm 4 m/s 741 mmHg 91%
    21:00 +13°C° 0.1 mm 4 m/s 741 mmHg 90%
    22:00 +13°C° 0.1 mm 4 m/s 741 mmHg 90%
    23:00 +13°C° 0 mm 4 m/s 741 mmHg 90%

    10 Iunie, Miercuri

    Timp Temperatura Precipitaţii Vânt Presiune Umiditate
    00:00 +13°C° 0 mm 4 m/s 742 mmHg 89%
    01:00 +13°C° 0 mm 4 m/s 742 mmHg 89%
    02:00 +12°C° 0 mm 3 m/s 742 mmHg 89%
    03:00 +12°C° 0 mm 3 m/s 742 mmHg 88%
    04:00 +12°C° 0 mm 3 m/s 742 mmHg 88%
    05:00 +13°C° 0 mm 4 m/s 742 mmHg 85%
    06:00 +14°C° 0 mm 4 m/s 742 mmHg 82%
    07:00 +15°C° 0 mm 4 m/s 742 mmHg 80%
    08:00 +17°C° 0 mm 4 m/s 743 mmHg 76%
    09:00 +19°C° 0 mm 4 m/s 743 mmHg 72%
    10:00 +20°C° 0 mm 4 m/s 743 mmHg 69%
    11:00 +21°C° 0.1 mm 4 m/s 743 mmHg 66%
    12:00 +22°C° 0.1 mm 3 m/s 743 mmHg 64%
    13:00 +22°C° 0.1 mm 3 m/s 743 mmHg 61%
    14:00 +22°C° 0 mm 3 m/s 743 mmHg 62%
    15:00 +22°C° 0 mm 3 m/s 743 mmHg 63%
    16:00 +22°C° 0 mm 3 m/s 743 mmHg 65%
    17:00 +21°C° 0.1 mm 3 m/s 743 mmHg 70%
    18:00 +20°C° 0.1 mm 2 m/s 743 mmHg 76%
    19:00 +19°C° 0.1 mm 2 m/s 743 mmHg 82%
    20:00 +18°C° 0 mm 2 m/s 743 mmHg 84%
    21:00 +18°C° 0 mm 1 m/s 744 mmHg 87%
    22:00 +16°C° 0 mm 1 m/s 744 mmHg 90%
    23:00 +16°C° 0 mm 1 m/s 744 mmHg 90%
    Arată mai mult